TimePDT,TemperatureF,Dew PointF,Humidity,Sea Level PressureIn,VisibilityMPH,Wind Direction,Wind SpeedMPH,Gust SpeedMPH,PrecipitationIn,Events,Conditions,WindDirDegrees,DateUTC
12:55 AM,80.1,46.9,31,29.74,10.0,Calm,Calm,-,N/A,,Clear,0,2013-07-04 07:55:00
1:55 AM,80.1,46.9,31,29.73,10.0,South,3.5,-,N/A,,Clear,170,2013-07-04 08:55:00
2:55 AM,79.0,46.9,32,29.71,10.0,SSW,6.9,-,N/A,,Clear,210,2013-07-04 09:55:00
3:55 AM,77.0,45.0,32,29.70,10.0,South,9.2,-,N/A,,Clear,190,2013-07-04 10:55:00
4:55 AM,77.0,46.0,33,29.70,10.0,South,6.9,-,N/A,,Clear,190,2013-07-04 11:55:00
5:55 AM,75.0,46.0,36,29.71,10.0,South,8.1,-,N/A,,Clear,190,2013-07-04 12:55:00
6:55 AM,75.9,46.0,35,29.73,10.0,SSW,3.5,-,N/A,,Clear,200,2013-07-04 13:55:00
7:55 AM,81.0,46.0,29,29.74,10.0,Calm,Calm,-,N/A,,Clear,0,2013-07-04 14:55:00
8:55 AM,84.9,46.0,26,29.74,10.0,South,3.5,-,N/A,,Clear,180,2013-07-04 15:55:00
9:55 AM,91.9,46.0,21,29.73,10.0,South,3.5,-,N/A,,Clear,170,2013-07-04 16:55:00
10:55 AM,97.0,45.0,17,29.72,10.0,SSE,3.5,-,N/A,,Clear,150,2013-07-04 17:55:00
11:55 AM,102.0,45.0,14,29.70,10.0,Variable,4.6,-,N/A,,Clear,0,2013-07-04 18:55:00
12:55 PM,105.1,43.0,12,29.69,10.0,Calm,Calm,-,N/A,,Clear,0,2013-07-04 19:55:00
1:55 PM,107.1,42.1,11,29.66,10.0,South,6.9,-,N/A,,Clear,170,2013-07-04 20:55:00
2:55 PM,108.0,43.0,11,29.65,10.0,SSW,16.1,27.6,N/A,,Clear,210,2013-07-04 21:55:00
3:55 PM,107.1,44.1,12,29.63,10.0,SW,24.2,31.1,N/A,,Clear,230,2013-07-04 22:55:00
4:55 PM,104.0,45.0,14,29.62,10.0,SW,26.5,33.4,N/A,,Clear,230,2013-07-04 23:55:00
5:55 PM,99.0,46.9,17,29.63,10.0,SW,31.1,36.8,N/A,,Clear,220,2013-07-05 00:55:00
6:55 PM,96.1,48.9,20,29.65,10.0,SW,24.2,31.1,N/A,,Clear,230,2013-07-05 01:55:00
7:55 PM,91.0,51.1,25,29.67,10.0,SW,18.4,27.6,N/A,,Clear,220,2013-07-05 02:55:00
8:55 PM,87.1,51.1,29,29.69,10.0,SW,17.3,-,N/A,,Clear,220,2013-07-05 03:55:00
9:55 PM,84.9,48.9,29,29.69,10.0,SSW,17.3,-,N/A,,Clear,210,2013-07-05 04:55:00
10:55 PM,82.9,48.9,31,29.70,10.0,SSW,12.7,-,N/A,,Clear,200,2013-07-05 05:55:00
11:55 PM,82.0,48.9,31,29.70,10.0,SSW,15.0,-,N/A,,Clear,210,2013-07-05 06:55:00